Tacoma, WA
on Friday, January 4, 2013

Friday
Previous Day Next Day
Daily Summary
 ActualAverage (KSEA)Record (KSEA)
Temperature
Mean Temperature °F 41°F  
Max Temperature 50°F 46°F 61°F (1984)
Min Temperature 35°F 36°F 14°F (1950)
Degree Days
Heating Degree Days 22 24  
Month to date heating degree days 96  
Since 1 July heating degree days 2034  
Cooling Degree Days 0 0  
Month to date cooling degree days 0  
Year to date cooling degree days 0  
Moisture
Dew Point 40°F   
Average Humidity 97    
Maximum Humidity 100    
Minimum Humidity 81    
Precipitation
Precipitation 0.02 in 0.19 in 1.56 in (1967)
Month to date precipitation 0.74  
Year to date precipitation 0.74  
Snow
Snow 0.00 in in 5.90 in (1967)
Month to date snowfall  
Since 1 July snowfall  
Snow Depth in   
Wind
Wind Speed 2 mph   
Max Wind Speed 8 mph   
Max Gust Speed mph   
Visibility 6 miles   
Events Rain   

Key: T is trace of precipitation, MM is missing value
Source: NWS Daily Summary
Time(PST)TemperatureDew PointHumidity Pressure Visibility Wind DirectionWind SpeedGust SpeedPrecipitationEvents Conditions
12:08 AM 35.6°F 35.6°F 100% 30.17 in 4.0 miles West 1.2 mph - N/A   Light Drizzle
12:51 AM 35.6°F 35.6°F 100% 30.18 in 4.0 miles SE 2.3 mph - N/A   Overcast
12:55 AM 35.6°F 35.6°F 100% 30.18 in 4.0 miles East 1.2 mph - N/A   Light Drizzle
12:58 AM 36.3°F 36.1°F 99% 30.20 in 4.0 miles Calm Calm - 0.01 in   Light Drizzle
1:08 AM 37.4°F 35.6°F 93% 30.18 in 2.5 miles NE 1.2 mph - N/A Rain Light Rain
1:13 AM 37.4°F 35.6°F 93% 30.19 in 3.0 miles Calm Calm - N/A   Light Drizzle
1:18 AM 37.4°F 35.6°F 93% 30.19 in 3.0 miles Calm Calm - N/A   Light Drizzle
1:33 AM 37.4°F 35.6°F 93% 30.19 in 4.0 miles NE 1.2 mph - N/A   Overcast
1:58 AM 36.3°F 36.1°F 99% 30.22 in 5.0 miles SSE 2.3 mph - 0.01 in   Overcast
2:25 AM 35.6°F 35.6°F 100% 30.22 in 9.0 miles South 1.2 mph - N/A Rain Light Rain
2:29 AM 35.6°F 35.6°F 100% 30.22 in 9.0 miles South 1.2 mph - N/A   Overcast
2:58 AM 36.5°F 36.1°F 99% 30.25 in 9.0 miles ESE 1.2 mph - 0.00 in   Overcast
3:58 AM 37.6°F 37.2°F 99% 30.25 in 5.0 miles East 1.2 mph - N/A   Overcast
3:59 AM 37.4°F 37.4°F 100% 30.24 in 5.0 miles ESE 1.2 mph - N/A Rain Light Rain
4:11 AM 37.4°F 37.4°F 100% 30.24 in 5.0 miles East 2.3 mph - N/A   Overcast
4:19 AM 37.4°F 37.4°F 100% 30.24 in 4.0 miles East 1.2 mph - N/A Rain Light Rain
4:28 AM 37.4°F 37.4°F 100% 30.24 in 5.0 miles Calm Calm - N/A   Overcast
4:41 AM 37.4°F 37.4°F 100% 30.23 in 4.0 miles Calm Calm - N/A Rain Light Rain
4:54 AM 37.4°F 37.4°F 100% 30.24 in 4.0 miles Calm Calm - N/A   Overcast
4:58 AM 37.9°F 37.8°F 99% 30.26 in 5.0 miles Calm Calm - 0.00 in   Overcast
5:58 AM 37.6°F 37.2°F 99% 30.27 in 6.0 miles SSW 2.3 mph - N/A   Overcast
6:58 AM 39.9°F 39.7°F 99% 30.28 in 10.0 miles SE 2.3 mph - N/A   Overcast
7:58 AM 40.1°F 39.9°F 99% 30.30 in 10.0 miles South 4.6 mph - N/A   Overcast
8:30 AM 41.0°F 41.0°F 100% 30.29 in 10.0 miles SW 6.9 mph - N/A   Overcast
8:39 AM 42.8°F 41.0°F 93% 30.29 in 10.0 miles SW 8.1 mph - N/A   Overcast
8:44 AM 42.8°F 42.8°F 100% 30.29 in 10.0 miles SW 8.1 mph - N/A   Overcast
8:48 AM 42.8°F 42.8°F 100% 30.30 in 10.0 miles SW 8.1 mph - N/A   Overcast
8:58 AM 43.0°F 42.6°F 99% 30.32 in 10.0 miles SSW 6.9 mph - 0.00 in   Overcast
9:08 AM 42.8°F 42.8°F 100% 30.30 in 10.0 miles SW 6.9 mph - N/A   Overcast
9:58 AM 44.8°F 44.6°F 99% 30.34 in 10.0 miles SSW 8.1 mph - N/A   Overcast
10:58 AM 46.0°F 45.0°F 96% 30.33 in 10.0 miles SW 6.9 mph - N/A   Overcast
11:03 AM 46.4°F 44.6°F 93% 30.31 in 10.0 miles SW 8.1 mph - N/A   Overcast
11:08 AM 46.4°F 44.6°F 93% 30.31 in 10.0 miles SW 8.1 mph - N/A   Overcast
11:28 AM 48.2°F 44.6°F 87% 30.30 in 10.0 miles SW 8.1 mph - N/A   Mostly Cloudy
11:58 AM 48.6°F 44.8°F 87% 30.31 in 10.0 miles SW 8.1 mph - N/A   Partly Cloudy
12:08 PM 48.2°F 44.6°F 87% 30.29 in 10.0 miles SW 5.8 mph - N/A   Mostly Cloudy
12:18 PM 48.2°F 44.6°F 87% 30.28 in 10.0 miles SW 4.6 mph - N/A   Scattered Clouds
12:58 PM 50.0°F 44.4°F 81% 30.29 in 10.0 miles West 4.6 mph - N/A   Partly Cloudy
1:58 PM 48.7°F 43.9°F 83% 30.27 in 10.0 miles West 5.8 mph - N/A   Mostly Cloudy
2:58 PM 47.7°F 43.7°F 86% 30.27 in 10.0 miles NNW 4.6 mph - N/A   Partly Cloudy
3:58 PM 47.7°F 43.5°F 86% 30.27 in 10.0 miles NNE 3.5 mph - N/A   Scattered Clouds
4:58 PM 44.8°F 43.3°F 95% 30.24 in 10.0 miles NE 1.2 mph - N/A   Partly Cloudy
5:28 PM 42.8°F 42.8°F 100% 30.21 in 2.5 miles Calm Calm - N/A   Mostly Cloudy
5:33 PM 42.8°F 42.8°F 100% 30.21 in 4.0 miles Calm Calm - N/A   Overcast
5:48 PM 42.8°F 42.8°F 100% 30.21 in 2.0 miles Calm Calm - N/A   Mostly Cloudy
5:53 PM 44.6°F 42.8°F 93% 30.21 in 1.0 miles Calm Calm - N/A   Mostly Cloudy
5:58 PM 44.6°F 42.8°F 93% 30.23 in 1.0 miles Calm Calm - N/A   Mostly Cloudy
6:03 PM 41.0°F 41.0°F 100% 30.21 in 1.5 miles Calm Calm - N/A   Mostly Cloudy
6:13 PM 41.0°F 39.2°F 93% 30.20 in 1.8 miles Calm Calm - N/A   Overcast
6:18 PM 39.2°F 39.2°F 100% 30.20 in 2.5 miles SW 2.3 mph - N/A   Overcast
6:23 PM 41.0°F 39.2°F 93% 30.20 in 1.2 miles SSW 2.3 mph - N/A   Overcast
6:28 PM 41.0°F 41.0°F 100% 30.20 in 1.0 miles Variable 1.2 mph - N/A   Overcast
6:38 PM 42.8°F 42.8°F 100% 30.20 in 0.8 miles Calm Calm - N/A   Overcast
6:43 PM 42.8°F 42.8°F 100% 30.20 in 1.5 miles West 1.2 mph - N/A   Overcast
6:48 PM 41.0°F 41.0°F 100% 30.20 in 3.0 miles WSW 2.3 mph - N/A   Overcast
6:58 PM 40.1°F 39.9°F 99% 30.22 in 1.2 miles Calm Calm - N/A   Overcast
7:08 PM 41.0°F 41.0°F 100% 30.19 in 7.0 miles Calm Calm - N/A   Overcast
7:58 PM 40.8°F 40.6°F 99% 30.21 in 10.0 miles Variable 1.2 mph - N/A   Mostly Cloudy
8:13 PM 41.0°F 41.0°F 100% 30.19 in 9.0 miles Calm Calm - N/A   Mostly Cloudy
8:23 PM 41.0°F 41.0°F 100% 30.19 in 9.0 miles Calm Calm - N/A   Mostly Cloudy
8:38 PM 39.2°F 39.2°F 100% 30.19 in 5.0 miles Calm Calm - N/A   Partly Cloudy
8:43 PM 39.2°F 39.2°F 100% 30.18 in 2.5 miles SE 2.3 mph - N/A   Scattered Clouds
8:48 PM 39.2°F 39.2°F 100% 30.18 in 1.8 miles East 2.3 mph - N/A   Partly Cloudy
8:53 PM 39.2°F 39.2°F 100% 30.18 in 2.5 miles East 3.5 mph - N/A   Scattered Clouds
8:58 PM 39.4°F 39.2°F 99% 30.20 in 5.0 miles ESE 2.3 mph - N/A   Mostly Cloudy
9:08 PM 39.2°F 39.2°F 100% 30.18 in 4.0 miles Calm Calm - N/A   Mostly Cloudy
9:13 PM 39.2°F 39.2°F 100% 30.18 in 2.0 miles SSE 3.5 mph - N/A   Mostly Cloudy
9:18 PM 39.2°F 39.2°F 100% 30.18 in 1.2 miles SE 2.3 mph - N/A   Overcast
9:23 PM 39.2°F 39.2°F 100% 30.18 in 1.2 miles ESE 2.3 mph - N/A   Overcast
9:28 PM 39.2°F 37.4°F 93% 30.17 in 2.0 miles SE 2.3 mph - N/A   Overcast
9:33 PM 39.2°F 39.2°F 100% 30.17 in 3.0 miles SE 2.3 mph - N/A   Overcast
9:58 PM 39.6°F 39.2°F 99% 30.20 in 10.0 miles Calm Calm - N/A   Overcast
10:38 PM 39.2°F 39.2°F 100% 30.17 in 9.0 miles East 2.3 mph - N/A   Overcast
10:48 PM 39.2°F 39.2°F 100% 30.16 in 8.0 miles Calm Calm - N/A   Overcast
10:58 PM 39.2°F 39.0°F 99% 30.18 in 2.5 miles Calm Calm - N/A   Overcast
11:03 PM 39.2°F 39.2°F 100% 30.16 in 1.8 miles North 1.2 mph - N/A   Overcast
11:08 PM 39.2°F 39.2°F 100% 30.16 in 2.0 miles SW 2.3 mph - N/A   Overcast
11:13 PM 39.2°F 39.2°F 100% 30.17 in 4.0 miles WSW 2.3 mph - N/A   Overcast
11:58 PM 39.7°F 39.6°F 99% 30.18 in 10.0 miles WSW 1.2 mph - N/A   Overcast
Moon Phase
Jan. 04 Jan. 04 Jan. 11 Jan. 18 Jan. 26
Sunrise:07:56 AM (PST) Moon Rise:No Moon Rise/
Sunset:04:34 PM (PST) Moon Set:11:10 AM (PST)1/4

Copyright © 2014 The Weather Underground, Inc.